contact:dominique.lefevre@mio.osupytheas.fr, maurice.libes@osupytheas.fr, didier.mallarino@osupytheas.fr
Project:EMSO http://www.emso-fr.org/EMSO-France
Depth: 2436.0 m
Title:EMSO Ligure Ouest : Data MII capteur MICROCAT
DateTime_Computer,Latitude,Longitude,Temperature,Conductivity,Pressure,DateTime_Instrument
DateTime_Computer,Latitude,Longitude,degC,S m-1,dbar,DateTime_Instrument
2021-08-08T00:01:18Z,42.805,6.029,13.2989,4.59998,2470.474,2021-8-08T02:02:36Z
2021-08-08T00:04:21Z,42.805,6.029,13.2989,4.59998,2470.423,2021-8-08T02:05:39Z
2021-08-08T00:07:24Z,42.805,6.029,13.2989,4.59997,2470.474,2021-8-08T02:08:42Z
2021-08-08T00:10:27Z,42.805,6.029,13.2990,4.59998,2470.45,2021-8-08T02:11:45Z
2021-08-08T00:13:30Z,42.805,6.029,13.2987,4.59998,2470.437,2021-8-08T02:14:48Z
2021-08-08T00:16:34Z,42.805,6.029,13.2990,4.59999,2470.437,2021-8-08T02:17:51Z
2021-08-08T00:19:37Z,42.805,6.029,13.2987,4.59999,2470.437,2021-8-08T02:20:55Z
2021-08-08T00:22:40Z,42.805,6.029,13.2989,4.59997,2470.483,2021-8-08T02:23:58Z
2021-08-08T00:25:43Z,42.805,6.029,13.2993,4.60000,2470.45,2021-8-08T02:27:01Z
2021-08-08T00:28:46Z,42.805,6.029,13.2993,4.59997,2470.427,2021-8-08T02:30:04Z
2021-08-08T00:31:49Z,42.805,6.029,13.2990,4.59999,2470.413,2021-8-08T02:33:07Z
2021-08-08T00:34:52Z,42.805,6.029,13.2990,4.59999,2470.45,2021-8-08T02:36:10Z
2021-08-08T00:37:55Z,42.805,6.029,13.2988,4.59999,2470.413,2021-8-08T02:39:13Z
2021-08-08T00:40:58Z,42.805,6.029,13.2988,4.59999,2470.413,2021-8-08T02:42:16Z
2021-08-08T00:44:02Z,42.805,6.029,13.2986,4.59999,2470.437,2021-8-08T02:45:19Z
2021-08-08T00:47:05Z,42.805,6.029,13.2990,4.59998,2470.427,2021-8-08T02:48:23Z
2021-08-08T00:50:08Z,42.805,6.029,13.2994,4.59998,2470.39,2021-8-08T02:51:26Z
2021-08-08T00:53:11Z,42.805,6.029,13.2991,4.59997,2470.427,2021-8-08T02:54:29Z
2021-08-08T00:56:14Z,42.805,6.029,13.2987,4.59998,2470.437,2021-8-08T02:57:32Z
2021-08-08T00:59:17Z,42.805,6.029,13.2992,4.59998,2470.427,2021-8-08T03:00:35Z
2021-08-08T01:02:20Z,42.805,6.029,13.2989,4.59998,2470.413,2021-8-08T03:03:38Z
2021-08-08T01:05:23Z,42.805,6.029,13.2988,4.59999,2470.413,2021-8-08T03:06:41Z
2021-08-08T01:08:27Z,42.805,6.029,13.2988,4.60000,2470.39,2021-8-08T03:09:44Z
2021-08-08T01:11:30Z,42.805,6.029,13.2988,4.60001,2470.437,2021-8-08T03:12:48Z
2021-08-08T01:14:33Z,42.805,6.029,13.2989,4.59999,2470.404,2021-8-08T03:15:51Z
2021-08-08T01:17:36Z,42.805,6.029,13.2989,4.59998,2470.39,2021-8-08T03:18:54Z
2021-08-08T01:20:39Z,42.805,6.029,13.2990,4.59999,2470.413,2021-8-08T03:21:57Z
2021-08-08T01:23:42Z,42.805,6.029,13.2988,4.60001,2470.413,2021-8-08T03:25:00Z
2021-08-08T01:26:45Z,42.805,6.029,13.2989,4.59999,2470.39,2021-8-08T03:28:03Z
2021-08-08T01:29:48Z,42.805,6.029,13.2990,4.59997,2470.38,2021-8-08T03:31:06Z
2021-08-08T01:32:51Z,42.805,6.029,13.2990,4.59999,2470.404,2021-8-08T03:34:09Z
2021-08-08T01:35:55Z,42.805,6.029,13.2988,4.59999,2470.413,2021-8-08T03:37:12Z
2021-08-08T01:38:58Z,42.805,6.029,13.2991,4.59999,2470.366,2021-8-08T03:40:16Z
2021-08-08T01:42:01Z,42.805,6.029,13.2991,4.59997,2470.404,2021-8-08T03:43:19Z
2021-08-08T01:45:04Z,42.805,6.029,13.2989,4.59997,2470.427,2021-8-08T03:46:22Z
2021-08-08T01:48:07Z,42.805,6.029,13.2985,4.59998,2470.39,2021-8-08T03:49:25Z
2021-08-08T01:51:10Z,42.805,6.029,13.2987,4.59998,2470.39,2021-8-08T03:52:28Z
2021-08-08T01:54:13Z,42.805,6.029,13.2991,4.59999,2470.39,2021-8-08T03:55:31Z
2021-08-08T01:57:16Z,42.805,6.029,13.2992,4.59999,2470.39,2021-8-08T03:58:34Z
2021-08-08T02:00:20Z,42.805,6.029,13.2990,4.60000,2470.437,2021-8-08T04:01:37Z
2021-08-08T02:03:23Z,42.805,6.029,13.2986,4.59999,2470.366,2021-8-08T04:04:41Z
2021-08-08T02:06:26Z,42.805,6.029,13.2985,4.59998,2470.427,2021-8-08T04:07:44Z
2021-08-08T02:09:29Z,42.805,6.029,13.2990,4.60001,2470.39,2021-8-08T04:10:47Z
2021-08-08T02:12:32Z,42.805,6.029,13.2988,4.59999,2470.366,2021-8-08T04:13:50Z
2021-08-08T02:15:35Z,42.805,6.029,13.2993,4.59999,2470.343,2021-8-08T04:16:53Z
2021-08-08T02:18:38Z,42.805,6.029,13.2991,4.59999,2470.39,2021-8-08T04:19:56Z
2021-08-08T02:21:41Z,42.805,6.029,13.2988,4.59998,2470.404,2021-8-08T04:22:59Z
2021-08-08T02:24:44Z,42.805,6.029,13.2987,4.59999,2470.417,2021-8-08T04:26:02Z
2021-08-08T02:27:48Z,42.805,6.029,13.2990,4.59998,2470.404,2021-8-08T04:29:05Z
2021-08-08T02:30:51Z,42.805,6.029,13.2991,4.59998,2470.366,2021-8-08T04:32:09Z
2021-08-08T02:33:54Z,42.805,6.029,13.2987,4.59999,2470.39,2021-8-08T04:35:12Z
2021-08-08T02:36:57Z,42.805,6.029,13.2985,4.59999,2470.404,2021-8-08T04:38:15Z
2021-08-08T02:40:00Z,42.805,6.029,13.2991,4.59999,2470.39,2021-8-08T04:41:18Z
2021-08-08T02:43:03Z,42.805,6.029,13.2990,4.59999,2470.39,2021-8-08T04:44:21Z
2021-08-08T02:46:06Z,42.805,6.029,13.2989,4.59999,2470.404,2021-8-08T04:47:24Z
2021-08-08T02:49:09Z,42.805,6.029,13.2989,4.59999,2470.39,2021-8-08T04:50:27Z
2021-08-08T02:52:13Z,42.805,6.029,13.2988,4.59999,2470.413,2021-8-08T04:53:30Z
2021-08-08T02:55:16Z,42.805,6.029,13.2993,4.59998,2470.39,2021-8-08T04:56:34Z
2021-08-08T02:58:19Z,42.805,6.029,13.2990,4.60001,2470.427,2021-8-08T04:59:37Z
2021-08-08T03:01:22Z,42.805,6.029,13.2991,4.59999,2470.427,2021-8-08T05:02:40Z
2021-08-08T03:04:25Z,42.805,6.029,13.2985,4.59998,2470.39,2021-8-08T05:05:43Z
2021-08-08T03:07:28Z,42.805,6.029,13.2989,4.59999,2470.413,2021-8-08T05:08:46Z
2021-08-08T03:10:31Z,42.805,6.029,13.2989,4.59998,2470.39,2021-8-08T05:11:49Z
2021-08-08T03:13:34Z,42.805,6.029,13.2987,4.59999,2470.437,2021-8-08T05:14:52Z
2021-08-08T03:16:37Z,42.805,6.029,13.2995,4.59999,2470.413,2021-8-08T05:17:55Z
2021-08-08T03:19:41Z,42.805,6.029,13.2991,4.59998,2470.413,2021-8-08T05:20:59Z
2021-08-08T03:22:44Z,42.805,6.029,13.2991,4.60001,2470.413,2021-8-08T05:24:02Z
2021-08-08T03:25:47Z,42.805,6.029,13.2987,4.59998,2470.437,2021-8-08T05:27:05Z
2021-08-08T03:28:50Z,42.805,6.029,13.2991,4.60000,2470.39,2021-8-08T05:30:08Z
2021-08-08T03:31:53Z,42.805,6.029,13.2990,4.59998,2470.413,2021-8-08T05:33:11Z
2021-08-08T03:34:56Z,42.805,6.029,13.2991,4.60001,2470.427,2021-8-08T05:36:14Z
2021-08-08T03:37:59Z,42.805,6.029,13.2991,4.59997,2470.404,2021-8-08T05:39:17Z
2021-08-08T03:41:02Z,42.805,6.029,13.2989,4.59998,2470.413,2021-8-08T05:42:20Z
2021-08-08T03:44:06Z,42.805,6.029,13.2990,4.59999,2470.39,2021-8-08T05:45:23Z
2021-08-08T03:47:09Z,42.805,6.029,13.2991,4.59998,2470.404,2021-8-08T05:48:27Z
2021-08-08T03:50:12Z,42.805,6.029,13.2988,4.59998,2470.437,2021-8-08T05:51:30Z
2021-08-08T03:53:15Z,42.805,6.029,13.2985,4.59997,2470.427,2021-8-08T05:54:33Z
2021-08-08T03:56:18Z,42.805,6.029,13.2989,4.59997,2470.413,2021-8-08T05:57:36Z
2021-08-08T03:59:21Z,42.805,6.029,13.2986,4.59999,2470.45,2021-8-08T06:00:39Z
2021-08-08T04:02:24Z,42.805,6.029,13.2989,4.59999,2470.437,2021-8-08T06:03:42Z
2021-08-08T04:05:27Z,42.805,6.029,13.2991,4.59999,2470.427,2021-8-08T06:06:45Z
2021-08-08T04:08:30Z,42.805,6.029,13.2991,4.60000,2470.437,2021-8-08T06:09:48Z
2021-08-08T04:11:34Z,42.805,6.029,13.2987,4.60003,2470.46,2021-8-08T06:12:52Z
2021-08-08T04:14:37Z,42.805,6.029,13.2991,4.60000,2470.413,2021-8-08T06:15:55Z
2021-08-08T04:17:40Z,42.805,6.029,13.2990,4.59999,2470.46,2021-8-08T06:18:58Z
2021-08-08T04:20:43Z,42.805,6.029,13.2990,4.59999,2470.497,2021-8-08T06:22:01Z
2021-08-08T04:23:46Z,42.805,6.029,13.2990,4.59999,2470.437,2021-8-08T06:25:04Z
2021-08-08T04:26:49Z,42.805,6.029,13.2990,4.59999,2470.46,2021-8-08T06:28:07Z
2021-08-08T04:29:52Z,42.805,6.029,13.2991,4.60001,2470.437,2021-8-08T06:31:10Z
2021-08-08T04:32:55Z,42.805,6.029,13.2989,4.60001,2470.413,2021-8-08T06:34:13Z
2021-08-08T04:35:59Z,42.805,6.029,13.2991,4.59998,2470.437,2021-8-08T06:37:16Z
2021-08-08T04:39:02Z,42.805,6.029,13.2991,4.59999,2470.46,2021-8-08T06:40:20Z
2021-08-08T04:42:05Z,42.805,6.029,13.2989,4.59999,2470.45,2021-8-08T06:43:23Z
2021-08-08T04:45:08Z,42.805,6.029,13.2990,4.59999,2470.46,2021-8-08T06:46:26Z
2021-08-08T04:48:11Z,42.805,6.029,13.2984,4.59999,2470.437,2021-8-08T06:49:29Z
2021-08-08T04:51:14Z,42.805,6.029,13.2986,4.59998,2470.46,2021-8-08T06:52:32Z
2021-08-08T04:54:17Z,42.805,6.029,13.2986,4.59999,2470.427,2021-8-08T06:55:35Z
2021-08-08T04:57:20Z,42.805,6.029,13.2989,4.59998,2470.474,2021-8-08T06:58:38Z
2021-08-08T05:00:24Z,42.805,6.029,13.2992,4.59999,2470.46,2021-8-08T07:01:41Z
2021-08-08T05:03:27Z,42.805,6.029,13.2989,4.60000,2470.437,2021-8-08T07:04:45Z
2021-08-08T05:06:30Z,42.805,6.029,13.2990,4.60001,2470.497,2021-8-08T07:07:48Z
2021-08-08T05:09:33Z,42.805,6.029,13.2990,4.60001,2470.46,2021-8-08T07:10:51Z
2021-08-08T05:12:36Z,42.805,6.029,13.2988,4.59998,2470.497,2021-8-08T07:13:54Z
2021-08-08T05:15:39Z,42.805,6.029,13.2986,4.59998,2470.446,2021-8-08T07:16:57Z
2021-08-08T05:18:42Z,42.805,6.029,13.2988,4.59999,2470.46,2021-8-08T07:20:00Z
2021-08-08T05:21:45Z,42.805,6.029,13.2991,4.59999,2470.45,2021-8-08T07:23:03Z
2021-08-08T05:24:48Z,42.805,6.029,13.2987,4.59997,2470.483,2021-8-08T07:26:06Z
2021-08-08T05:27:52Z,42.805,6.029,13.2988,4.59999,2470.46,2021-8-08T07:29:09Z
2021-08-08T05:30:55Z,42.805,6.029,13.2986,4.59998,2470.52,2021-8-08T07:32:13Z
2021-08-08T05:33:58Z,42.805,6.029,13.2987,4.60000,2470.46,2021-8-08T07:35:16Z
2021-08-08T05:37:01Z,42.805,6.029,13.2990,4.60001,2470.483,2021-8-08T07:38:19Z
2021-08-08T05:40:04Z,42.805,6.029,13.2991,4.59998,2470.483,2021-8-08T07:41:22Z
2021-08-08T05:43:07Z,42.805,6.029,13.2986,4.60000,2470.483,2021-8-08T07:44:25Z
2021-08-08T05:46:10Z,42.805,6.029,13.2991,4.59999,2470.52,2021-8-08T07:47:28Z
2021-08-08T05:49:13Z,42.805,6.029,13.2990,4.59999,2470.497,2021-8-08T07:50:31Z
2021-08-08T05:52:17Z,42.805,6.029,13.2986,4.59998,2470.52,2021-8-08T07:53:34Z
2021-08-08T05:55:20Z,42.805,6.029,13.2988,4.59999,2470.474,2021-8-08T07:56:38Z
2021-08-08T05:58:23Z,42.805,6.029,13.2991,4.59998,2470.507,2021-8-08T07:59:41Z
2021-08-08T06:01:26Z,42.805,6.029,13.2986,4.59999,2470.507,2021-8-08T08:02:44Z
2021-08-08T06:04:29Z,42.805,6.029,13.2986,4.59999,2470.46,2021-8-08T08:05:47Z
2021-08-08T06:07:32Z,42.805,6.029,13.2986,4.60000,2470.497,2021-8-08T08:08:50Z
2021-08-08T06:10:35Z,42.805,6.029,13.2990,4.59999,2470.52,2021-8-08T08:11:53Z
2021-08-08T06:13:38Z,42.805,6.029,13.2991,4.59999,2470.53,2021-8-08T08:14:56Z
2021-08-08T06:16:41Z,42.805,6.029,13.2988,4.59998,2470.507,2021-8-08T08:17:59Z
2021-08-08T06:19:45Z,42.805,6.029,13.2987,4.59999,2470.507,2021-8-08T08:21:02Z
2021-08-08T06:22:48Z,42.805,6.029,13.2988,4.60000,2470.507,2021-8-08T08:24:06Z
2021-08-08T06:25:51Z,42.805,6.029,13.2987,4.59999,2470.483,2021-8-08T08:27:09Z
2021-08-08T06:28:54Z,42.805,6.029,13.2986,4.60001,2470.497,2021-8-08T08:30:12Z
2021-08-08T06:31:57Z,42.805,6.029,13.2987,4.59999,2470.483,2021-8-08T08:33:15Z
2021-08-08T06:35:00Z,42.805,6.029,13.2991,4.60000,2470.483,2021-8-08T08:36:18Z
2021-08-08T06:38:03Z,42.805,6.029,13.2986,4.59999,2470.52,2021-8-08T08:39:21Z
2021-08-08T06:41:06Z,42.805,6.029,13.2986,4.59998,2470.53,2021-8-08T08:42:24Z
2021-08-08T06:44:09Z,42.805,6.029,13.2987,4.59999,2470.507,2021-8-08T08:45:27Z
2021-08-08T06:47:13Z,42.805,6.029,13.2991,4.59999,2470.493,2021-8-08T08:48:30Z
2021-08-08T06:50:16Z,42.805,6.029,13.2988,4.59999,2470.507,2021-8-08T08:51:34Z
2021-08-08T06:53:19Z,42.805,6.029,13.2989,4.59999,2470.483,2021-8-08T08:54:37Z
2021-08-08T06:56:22Z,42.805,6.029,13.2991,4.59999,2470.507,2021-8-08T08:57:40Z
2021-08-08T06:59:25Z,42.805,6.029,13.2990,4.59999,2470.516,2021-8-08T09:00:43Z
2021-08-08T07:02:28Z,42.805,6.029,13.2988,4.59999,2470.46,2021-8-08T09:03:46Z
2021-08-08T07:05:31Z,42.805,6.029,13.2991,4.60000,2470.52,2021-8-08T09:06:49Z
2021-08-08T07:08:34Z,42.805,6.029,13.2988,4.59998,2470.483,2021-8-08T09:09:52Z
2021-08-08T07:11:38Z,42.805,6.029,13.2990,4.59997,2470.483,2021-8-08T09:12:55Z
2021-08-08T07:14:41Z,42.805,6.029,13.2986,4.59999,2470.544,2021-8-08T09:15:59Z
2021-08-08T07:17:44Z,42.805,6.029,13.2991,4.59998,2470.507,2021-8-08T09:19:02Z
2021-08-08T07:20:47Z,42.805,6.029,13.2985,4.59999,2470.544,2021-8-08T09:22:05Z
2021-08-08T07:23:50Z,42.805,6.029,13.2990,4.59998,2470.507,2021-8-08T09:25:08Z
2021-08-08T07:26:53Z,42.805,6.029,13.2990,4.59998,2470.544,2021-8-08T09:28:11Z
2021-08-08T07:29:56Z,42.805,6.029,13.2987,4.59999,2470.544,2021-8-08T09:31:14Z
2021-08-08T07:32:59Z,42.805,6.029,13.2986,4.59998,2470.53,2021-8-08T09:34:17Z
2021-08-08T07:36:02Z,42.805,6.029,13.2986,4.59999,2470.507,2021-8-08T09:37:20Z
2021-08-08T07:39:06Z,42.805,6.029,13.2989,4.59999,2470.507,2021-8-08T09:40:23Z
2021-08-08T07:42:09Z,42.805,6.029,13.2989,4.59998,2470.52,2021-8-08T09:43:27Z
2021-08-08T07:45:12Z,42.805,6.029,13.2988,4.59999,2470.52,2021-8-08T09:46:30Z
2021-08-08T07:48:15Z,42.805,6.029,13.2989,4.59999,2470.53,2021-8-08T09:49:33Z
2021-08-08T07:51:18Z,42.805,6.029,13.2990,4.59998,2470.507,2021-8-08T09:52:36Z
2021-08-08T07:54:21Z,42.805,6.029,13.2990,4.59998,2470.507,2021-8-08T09:55:39Z
2021-08-08T07:57:24Z,42.805,6.029,13.2991,4.59999,2470.507,2021-8-08T09:58:42Z
2021-08-08T08:00:27Z,42.805,6.029,13.2986,4.59999,2470.497,2021-8-08T10:01:45Z
2021-08-08T08:03:31Z,42.805,6.029,13.2987,4.60000,2470.497,2021-8-08T10:04:48Z
2021-08-08T08:06:34Z,42.805,6.029,13.2991,4.59999,2470.52,2021-8-08T10:07:52Z
2021-08-08T08:09:37Z,42.805,6.029,13.2989,4.59998,2470.483,2021-8-08T10:10:55Z
2021-08-08T08:12:40Z,42.805,6.029,13.2987,4.59999,2470.507,2021-8-08T10:13:58Z
2021-08-08T08:15:43Z,42.805,6.029,13.2987,4.59998,2470.483,2021-8-08T10:17:01Z
2021-08-08T08:18:46Z,42.805,6.029,13.2986,4.59998,2470.507,2021-8-08T10:20:04Z
2021-08-08T08:21:49Z,42.805,6.029,13.2989,4.59998,2470.474,2021-8-08T10:23:07Z
2021-08-08T08:24:52Z,42.805,6.029,13.2986,4.59999,2470.483,2021-8-08T10:26:10Z
2021-08-08T08:27:55Z,42.805,6.029,13.2986,4.59998,2470.483,2021-8-08T10:29:13Z
2021-08-08T08:30:59Z,42.805,6.029,13.2987,4.59998,2470.507,2021-8-08T10:32:17Z
2021-08-08T08:34:02Z,42.805,6.029,13.2990,4.59999,2470.474,2021-8-08T10:35:20Z
2021-08-08T08:37:05Z,42.805,6.029,13.2989,4.59997,2470.497,2021-8-08T10:38:23Z
2021-08-08T08:40:08Z,42.805,6.029,13.2989,4.59999,2470.52,2021-8-08T10:41:26Z
2021-08-08T08:43:11Z,42.805,6.029,13.2986,4.60001,2470.497,2021-8-08T10:44:29Z
2021-08-08T08:46:14Z,42.805,6.029,13.2990,4.59999,2470.46,2021-8-08T10:47:32Z
2021-08-08T08:49:17Z,42.805,6.029,13.2990,4.59999,2470.497,2021-8-08T10:50:35Z
2021-08-08T08:52:21Z,42.805,6.029,13.2992,4.59999,2470.497,2021-8-08T10:53:38Z
2021-08-08T08:55:24Z,42.805,6.029,13.2987,4.59997,2470.52,2021-8-08T10:56:42Z
2021-08-08T08:58:27Z,42.805,6.029,13.2988,4.59999,2470.46,2021-8-08T10:59:45Z
2021-08-08T09:01:30Z,42.805,6.029,13.2990,4.59998,2470.483,2021-8-08T11:02:48Z
2021-08-08T09:04:33Z,42.805,6.029,13.2989,4.59999,2470.474,2021-8-08T11:05:51Z
2021-08-08T09:07:36Z,42.805,6.029,13.2986,4.59999,2470.483,2021-8-08T11:08:54Z
2021-08-08T09:10:39Z,42.805,6.029,13.2990,4.59999,2470.474,2021-8-08T11:11:57Z
2021-08-08T09:13:42Z,42.805,6.029,13.2988,4.60000,2470.46,2021-8-08T11:15:00Z
2021-08-08T09:16:45Z,42.805,6.029,13.2989,4.60001,2470.437,2021-8-08T11:18:03Z
2021-08-08T09:19:49Z,42.805,6.029,13.2983,4.59999,2470.483,2021-8-08T11:21:07Z
2021-08-08T09:22:52Z,42.805,6.029,13.2992,4.59998,2470.437,2021-8-08T11:24:10Z
2021-08-08T09:25:55Z,42.805,6.029,13.2992,4.59998,2470.474,2021-8-08T11:27:13Z
2021-08-08T09:28:58Z,42.805,6.029,13.2991,4.59998,2470.427,2021-8-08T11:30:16Z
2021-08-08T09:32:01Z,42.805,6.029,13.2990,4.59999,2470.474,2021-8-08T11:33:19Z
2021-08-08T09:35:04Z,42.805,6.029,13.2987,4.59996,2470.437,2021-8-08T11:36:22Z
2021-08-08T09:38:07Z,42.805,6.029,13.2990,4.59998,2470.46,2021-8-08T11:39:25Z
2021-08-08T09:41:10Z,42.805,6.029,13.2987,4.59998,2470.45,2021-8-08T11:42:28Z
2021-08-08T09:44:14Z,42.805,6.029,13.2988,4.59999,2470.427,2021-8-08T11:45:32Z
2021-08-08T09:47:17Z,42.805,6.029,13.2991,4.59999,2470.45,2021-8-08T11:48:35Z
2021-08-08T09:50:20Z,42.805,6.029,13.2990,4.60000,2470.437,2021-8-08T11:51:38Z
2021-08-08T09:53:23Z,42.805,6.029,13.2990,4.59999,2470.437,2021-8-08T11:54:41Z
2021-08-08T09:56:26Z,42.805,6.029,13.2986,4.59999,2470.45,2021-8-08T11:57:44Z
2021-08-08T09:59:29Z,42.805,6.029,13.2991,4.59999,2470.437,2021-8-08T12:00:47Z
2021-08-08T10:02:32Z,42.805,6.029,13.2982,4.59999,2470.437,2021-8-08T12:03:50Z
2021-08-08T10:05:35Z,42.805,6.029,13.2990,4.59999,2470.437,2021-8-08T12:06:53Z
2021-08-08T10:08:39Z,42.805,6.029,13.2990,4.60001,2470.427,2021-8-08T12:09:56Z
2021-08-08T10:11:42Z,42.805,6.029,13.2990,4.59998,2470.413,2021-8-08T12:13:00Z
2021-08-08T10:14:45Z,42.805,6.029,13.2987,4.59999,2470.427,2021-8-08T12:16:03Z
2021-08-08T10:17:48Z,42.805,6.029,13.2990,4.59997,2470.413,2021-8-08T12:19:06Z
2021-08-08T10:20:51Z,42.805,6.029,13.2986,4.59998,2470.427,2021-8-08T12:22:09Z
2021-08-08T10:23:54Z,42.805,6.029,13.2989,4.59998,2470.413,2021-8-08T12:25:12Z
2021-08-08T10:26:57Z,42.805,6.029,13.2988,4.59997,2470.413,2021-8-08T12:28:15Z
2021-08-08T10:30:00Z,42.805,6.029,13.2989,4.59998,2470.413,2021-8-08T12:31:18Z
2021-08-08T10:33:04Z,42.805,6.029,13.2990,4.59998,2470.413,2021-8-08T12:34:21Z
2021-08-08T10:36:07Z,42.805,6.029,13.2988,4.60001,2470.413,2021-8-08T12:37:25Z
2021-08-08T10:39:10Z,42.805,6.029,13.2989,4.60003,2470.404,2021-8-08T12:40:28Z
2021-08-08T10:42:13Z,42.805,6.029,13.2989,4.59999,2470.427,2021-8-08T12:43:31Z
2021-08-08T10:45:16Z,42.805,6.029,13.2987,4.59998,2470.366,2021-8-08T12:46:34Z
2021-08-08T10:48:19Z,42.805,6.029,13.2991,4.60000,2470.39,2021-8-08T12:49:37Z
2021-08-08T10:51:22Z,42.805,6.029,13.2983,4.59998,2470.404,2021-8-08T12:52:40Z
2021-08-08T10:54:25Z,42.805,6.029,13.2988,4.59998,2470.39,2021-8-08T12:55:43Z
2021-08-08T10:57:29Z,42.805,6.029,13.2990,4.59999,2470.38,2021-8-08T12:58:46Z
2021-08-08T11:00:32Z,42.805,6.029,13.2987,4.59999,2470.404,2021-8-08T13:01:50Z
2021-08-08T11:03:35Z,42.805,6.029,13.2986,4.60001,2470.38,2021-8-08T13:04:53Z
2021-08-08T11:06:38Z,42.805,6.029,13.2987,4.60000,2470.38,2021-8-08T13:07:56Z
2021-08-08T11:09:41Z,42.805,6.029,13.2987,4.59999,2470.366,2021-8-08T13:10:59Z
2021-08-08T11:12:44Z,42.805,6.029,13.2992,4.60002,2470.38,2021-8-08T13:14:02Z
2021-08-08T11:15:47Z,42.805,6.029,13.2992,4.59999,2470.39,2021-8-08T13:17:05Z
2021-08-08T11:18:50Z,42.805,6.029,13.2991,4.59999,2470.38,2021-8-08T13:20:08Z
2021-08-08T11:21:54Z,42.805,6.029,13.2989,4.59999,2470.427,2021-8-08T13:23:11Z
2021-08-08T11:24:57Z,42.805,6.029,13.2987,4.59999,2470.38,2021-8-08T13:26:15Z
2021-08-08T11:28:00Z,42.805,6.029,13.2989,4.60002,2470.357,2021-8-08T13:29:18Z
2021-08-08T11:31:03Z,42.805,6.029,13.2985,4.59999,2470.38,2021-8-08T13:32:21Z
2021-08-08T11:34:06Z,42.805,6.029,13.2990,4.59998,2470.404,2021-8-08T13:35:24Z
2021-08-08T11:37:09Z,42.805,6.029,13.2989,4.59998,2470.366,2021-8-08T13:38:27Z
2021-08-08T11:40:12Z,42.805,6.029,13.2989,4.59999,2470.38,2021-8-08T13:41:30Z
2021-08-08T11:43:15Z,42.805,6.029,13.2989,4.59999,2470.38,2021-8-08T13:44:33Z
2021-08-08T11:46:19Z,42.805,6.029,13.2990,4.59999,2470.366,2021-8-08T13:47:36Z
2021-08-08T11:49:22Z,42.805,6.029,13.2987,4.59998,2470.343,2021-8-08T13:50:40Z
2021-08-08T11:52:25Z,42.805,6.029,13.2991,4.59998,2470.39,2021-8-08T13:53:43Z
2021-08-08T11:55:28Z,42.805,6.029,13.2987,4.59999,2470.343,2021-8-08T13:56:46Z
2021-08-08T11:58:31Z,42.805,6.029,13.2991,4.59999,2470.38,2021-8-08T13:59:49Z
2021-08-08T12:01:34Z,42.805,6.029,13.2986,4.59998,2470.343,2021-8-08T14:02:52Z
2021-08-08T12:04:37Z,42.805,6.029,13.2990,4.59999,2470.366,2021-8-08T14:05:55Z
2021-08-08T12:07:40Z,42.805,6.029,13.2986,4.59999,2470.33,2021-8-08T14:08:58Z
2021-08-08T12:10:43Z,42.805,6.029,13.2990,4.59999,2470.357,2021-8-08T14:12:01Z
2021-08-08T12:13:47Z,42.805,6.029,13.2986,4.59999,2470.343,2021-8-08T14:15:05Z
2021-08-08T12:16:50Z,42.805,6.029,13.2985,4.59998,2470.343,2021-8-08T14:18:08Z
2021-08-08T12:19:53Z,42.805,6.029,13.2985,4.59999,2470.32,2021-8-08T14:21:11Z
2021-08-08T12:22:56Z,42.805,6.029,13.2984,4.59999,2470.343,2021-8-08T14:24:14Z
2021-08-08T12:25:59Z,42.805,6.029,13.2989,4.59998,2470.32,2021-8-08T14:27:17Z
2021-08-08T12:29:02Z,42.805,6.029,13.2986,4.59999,2470.357,2021-8-08T14:30:20Z
2021-08-08T12:32:05Z,42.805,6.029,13.2987,4.59999,2470.343,2021-8-08T14:33:23Z
2021-08-08T12:35:08Z,42.805,6.029,13.2988,4.59999,2470.343,2021-8-08T14:36:26Z
2021-08-08T12:38:12Z,42.805,6.029,13.2988,4.59999,2470.334,2021-8-08T14:39:30Z
2021-08-08T12:41:15Z,42.805,6.029,13.2992,4.59998,2470.32,2021-8-08T14:42:33Z
2021-08-08T12:44:18Z,42.805,6.029,13.2989,4.59999,2470.343,2021-8-08T14:45:36Z
2021-08-08T12:47:21Z,42.805,6.029,13.2986,4.59999,2470.343,2021-8-08T14:48:39Z
2021-08-08T12:50:24Z,42.805,6.029,13.2988,4.59997,2470.334,2021-8-08T14:51:42Z
2021-08-08T12:53:27Z,42.805,6.029,13.2986,4.59998,2470.357,2021-8-08T14:54:45Z
2021-08-08T12:56:30Z,42.805,6.029,13.2986,4.59997,2470.343,2021-8-08T14:57:48Z
2021-08-08T12:59:33Z,42.805,6.029,13.2990,4.59999,2470.357,2021-8-08T15:00:51Z
2021-08-08T13:02:37Z,42.805,6.029,13.2985,4.59997,2470.343,2021-8-08T15:03:55Z
2021-08-08T13:05:40Z,42.805,6.029,13.2990,4.59999,2470.357,2021-8-08T15:06:58Z
2021-08-08T13:08:43Z,42.805,6.029,13.2990,4.59999,2470.357,2021-8-08T15:10:01Z
2021-08-08T13:11:46Z,42.805,6.029,13.2991,4.59999,2470.334,2021-8-08T15:13:04Z
2021-08-08T13:14:49Z,42.805,6.029,13.2986,4.59997,2470.366,2021-8-08T15:16:07Z
2021-08-08T13:17:52Z,42.805,6.029,13.2985,4.59997,2470.343,2021-8-08T15:19:10Z
2021-08-08T13:20:55Z,42.805,6.029,13.2990,4.59999,2470.366,2021-8-08T15:22:13Z
2021-08-08T13:23:58Z,42.805,6.029,13.2987,4.59998,2470.297,2021-8-08T15:25:16Z
2021-08-08T13:27:02Z,42.805,6.029,13.2983,4.59999,2470.32,2021-8-08T15:28:19Z
2021-08-08T13:30:05Z,42.805,6.029,13.2988,4.59998,2470.357,2021-8-08T15:31:23Z
2021-08-08T13:33:08Z,42.805,6.029,13.2990,4.59998,2470.343,2021-8-08T15:34:26Z
2021-08-08T13:36:11Z,42.805,6.029,13.2985,4.59998,2470.343,2021-8-08T15:37:29Z
2021-08-08T13:39:14Z,42.805,6.029,13.2987,4.59999,2470.343,2021-8-08T15:40:32Z
2021-08-08T13:42:17Z,42.805,6.029,13.2986,4.59998,2470.343,2021-8-08T15:43:35Z
2021-08-08T13:45:20Z,42.805,6.029,13.2987,4.59998,2470.334,2021-8-08T15:46:38Z
2021-08-08T13:48:23Z,42.805,6.029,13.2988,4.59999,2470.334,2021-8-08T15:49:41Z
2021-08-08T13:51:27Z,42.805,6.029,13.2987,4.60000,2470.343,2021-8-08T15:52:44Z
2021-08-08T13:54:30Z,42.805,6.029,13.2987,4.60000,2470.357,2021-8-08T15:55:48Z
2021-08-08T13:57:33Z,42.805,6.029,13.2990,4.59999,2470.366,2021-8-08T15:58:51Z
2021-08-08T14:00:36Z,42.805,6.029,13.2988,4.59999,2470.366,2021-8-08T16:01:54Z
2021-08-08T14:03:39Z,42.805,6.029,13.2988,4.59999,2470.357,2021-8-08T16:04:57Z
2021-08-08T14:06:42Z,42.805,6.029,13.2987,4.59998,2470.38,2021-8-08T16:08:00Z
2021-08-08T14:09:45Z,42.805,6.029,13.2988,4.59999,2470.334,2021-8-08T16:11:03Z
2021-08-08T14:12:48Z,42.805,6.029,13.2987,4.60000,2470.366,2021-8-08T16:14:06Z
2021-08-08T14:15:52Z,42.805,6.029,13.2989,4.59999,2470.38,2021-8-08T16:17:09Z
2021-08-08T14:18:55Z,42.805,6.029,13.2990,4.59998,2470.404,2021-8-08T16:20:13Z
2021-08-08T14:21:58Z,42.805,6.029,13.2985,4.59999,2470.343,2021-8-08T16:23:16Z
2021-08-08T14:25:01Z,42.805,6.029,13.2985,4.59998,2470.39,2021-8-08T16:26:19Z
2021-08-08T14:28:04Z,42.805,6.029,13.2987,4.59997,2470.343,2021-8-08T16:29:22Z
2021-08-08T14:31:07Z,42.805,6.029,13.2985,4.59999,2470.357,2021-8-08T16:32:25Z
2021-08-08T14:34:10Z,42.805,6.029,13.2988,4.59997,2470.343,2021-8-08T16:35:28Z
2021-08-08T14:37:13Z,42.805,6.029,13.2990,4.59998,2470.366,2021-8-08T16:38:31Z
2021-08-08T14:40:16Z,42.805,6.029,13.2988,4.59997,2470.366,2021-8-08T16:41:34Z
2021-08-08T14:43:20Z,42.805,6.029,13.2987,4.60000,2470.343,2021-8-08T16:44:38Z
2021-08-08T14:46:23Z,42.805,6.029,13.2986,4.59998,2470.366,2021-8-08T16:47:41Z
2021-08-08T14:49:26Z,42.805,6.029,13.2988,4.59999,2470.39,2021-8-08T16:50:44Z
2021-08-08T14:52:29Z,42.805,6.029,13.2986,4.59998,2470.366,2021-8-08T16:53:47Z
2021-08-08T14:55:32Z,42.805,6.029,13.2990,4.59999,2470.32,2021-8-08T16:56:50Z
2021-08-08T14:58:35Z,42.805,6.029,13.2984,4.59997,2470.404,2021-8-08T16:59:53Z
2021-08-08T15:01:38Z,42.805,6.029,13.2986,4.60001,2470.366,2021-8-08T17:02:56Z
2021-08-08T15:04:41Z,42.805,6.029,13.2988,4.59999,2470.413,2021-8-08T17:05:59Z
2021-08-08T15:07:45Z,42.805,6.029,13.2988,4.59999,2470.38,2021-8-08T17:09:03Z
2021-08-08T15:10:48Z,42.805,6.029,13.2989,4.59997,2470.39,2021-8-08T17:12:06Z
2021-08-08T15:13:51Z,42.805,6.029,13.2986,4.59997,2470.343,2021-8-08T17:15:09Z